Hourly Data Report for July 31, 2021

GORE BAY CLIMATE
ONTARIO
Current Station Operator: ECCC - MSC

45°53'00.000" N
82°34'00.000" W
188.60 m
6092920
71956
TZE

Download Data

Hourly Data (July 2021)
Hourly Data Report for July 31, 2021
TIME
LST
Temp Definition
°C
Dew Point Definition
°C
Rel Hum Definition
%
Precip. Amount Definition
mm

Wind Dir Definition
10's deg

Wind Spd Definition
km/h
Visibility Definition
km
Stn Press Definition
kPa
Hmdx Definition


Wind Chill Definition


Weather Definition


00:00 17.0 11.3 69 0.0 28 12   99.45     LegendNANA
01:00 16.7 10.9 69 0.0 28 10   99.38     LegendNANA
02:00 16.0 11.5 75 0.0 25 9   99.36     LegendNANA
03:00 16.4 11.5 73 0.0 27 12   99.35     LegendNANA
04:00 16.4 11.4 72 0.0 27 14   99.32     LegendNANA
05:00 16.4 10.8 69 0.0 28 12   99.30     LegendNANA
06:00 15.9 8.4 61 0.0 27 23   99.31     LegendNANA
07:00 13.6 9.4 75 1.7 24 13   99.29     LegendNANA
08:00 13.8 11.4 85 0.8 17 8   99.23     LegendNANA
09:00 14.7 11.4 81 0.0 22 13   99.20     LegendNANA
10:00 13.9 11.3 84 0.6 20 12   99.21     LegendNANA
11:00 13.5 11.9 90 4.6 20 14   99.15     LegendNANA
12:00 13.8 12.3 91 3.8 16 18   98.98     LegendNANA
13:00 14.1 12.7 91 1.3 17 18   98.98     LegendNANA
14:00 14.7 13.2 91 0.8 11 3   98.98     LegendNANA
15:00 14.9 13.7 92 1.0 2 9   98.98     LegendNANA
16:00 16.7 14.8 89 0.7 3 11   98.95     LegendNANA
17:00 16.6 13.9 84 0.0 5 11   98.92     LegendNANA
18:00 17.2 13.1 77 0.0 36 8   98.91     LegendNANA
19:00 16.6 13.6 82 0.0 5 6   98.92     LegendNANA
20:00 16.0 13.6 86 0.0 10 4   98.91     LegendNANA
21:00 15.7 13.8 89 0.0 17 3   98.94     LegendNANA
22:00 16.0 14.2 89 0.0 13 5   98.90     LegendNANA
23:00 15.8 13.9 89 0.0 12 6   98.90     LegendNANA

Notes on Data Quality.

Legend

  • E = Estimated
  • M = Missing
  • NA = Not Available*
  • [empty] = Indicates an unobserved value
Date modified: